Fairbanks, AK

4:19 AM AKDT on May 23, 2017 (GMT -0800)
Fairbanks International

Weather History for PAFA - April, 2014

Change the Weather History Date:

Saturday, April 19, 2014

  Actual Average Record
Temperature  
Mean Temperature 40 °F 36 °F  
Max Temperature 53 °F 47 °F 66 °F (1999)
Min Temperature 27 °F 24 °F -7 °F (1959)
Degree Days  
Heating Degree Days 25 30  
Month to date heating degree days 711 692  
Since 1 July heating degree days 11679 12742  
Cooling Degree Days 0 0  
Month to date cooling degree days 0 0  
Year to date cooling degree days 0 0  
Moisture  
Dew Point 27 °F    
Average Humidity 59    
Maximum Humidity 89    
Minimum Humidity 20    
Precipitation  
Precipitation 0.00 in 0.01 in 0.40 in (1924)
Month to date precipitation 0.20 0.16  
Year to date precipitation 1.03 1.41  
Snow  
Snow 0.00 in 0.10 in 4.70 in (1924)
Month to date snowfall 2.9 2.1  
Since 1 July snowfall 48.9 63.3  
Snow Depth 7.00 in    
Sea Level Pressure  
Sea Level Pressure 29.64 in    
Wind  
Wind Speed 5 mph (NNE)    
Max Wind Speed 15 mph    
Max Gust Speed -    
Visibility 10 miles    
Events      
T = Trace of Precipitation, MM = Missing Value Source: NWS Daily Summary

Daily Weather History Graph

Daily Weather History Graph

Search for Another Location

Airport or City:

Trip Planner

Search our weather history database for the weather conditions in past years. The results will help you decide how hot, cold, wet, or windy it might be!

Date:

Astronomy

Apr. 19, 2014 Rise Set
Actual Time 6:01 AM AKDT 9:41 PM AKDT
Civil Twilight 5:01 AM AKDT 10:42 PM AKDT
Nautical Twilight 3:22 AM AKDT 12:25 AM AKDT
Astronomical Twilight Sun does not set Sun does not set
Moon 2:34 AM AKDT (4/19) 8:29 AM AKDT (4/19)
Length of Visible Light 17h 41m
Length of Day
15h 40m
Waning Gibbous, 77% of the Moon is Illuminated
Apr 19
Waning Gibbous
Apr 21
Last Quarter
Apr 28
New
May 6
First Quarter
May 14
Full

Hourly Weather History & Observations

Time (AKDT) Temp. Windchill Dew Point Humidity Pressure Visibility Wind Dir Wind Speed Gust Speed Precip Events Conditions
12:53 AM 36.0 °F 33.3 °F 27.0 °F 70% 29.60 in 10.0 mi WNW 3.5 mph - N/A   Scattered Clouds
1:53 AM 32.0 °F 26.4 °F 26.1 °F 79% 29.62 in 10.0 mi NE 5.8 mph - N/A   Partly Cloudy
2:53 AM 33.1 °F - 27.0 °F 78% 29.62 in 10.0 mi Calm Calm - N/A   Clear
3:53 AM 28.4 °F - 24.8 °F 86% 29.61 in 10.0 mi Calm Calm - N/A   Partly Cloudy
4:53 AM 28.0 °F - 24.1 °F 85% 29.64 in 10.0 mi Calm Calm - N/A   Partly Cloudy
5:53 AM 30.0 °F 26.5 °F 25.0 °F 82% 29.65 in 10.0 mi NNE 3.5 mph - N/A   Scattered Clouds
6:53 AM 27.0 °F - 24.1 °F 89% 29.66 in 10.0 mi Calm Calm - N/A   Scattered Clouds
7:53 AM 30.0 °F 25.2 °F 25.0 °F 82% 29.67 in 10.0 mi NE 4.6 mph - N/A   Scattered Clouds
8:53 AM 36.0 °F 32.1 °F 28.0 °F 73% 29.67 in 10.0 mi ENE 4.6 mph - N/A   Scattered Clouds
9:53 AM 41.0 °F 39.0 °F 28.9 °F 62% 29.67 in 10.0 mi ENE 3.5 mph - N/A   Mostly Cloudy
10:53 AM 43.0 °F - 30.0 °F 60% 29.66 in 10.0 mi Calm Calm - N/A   Mostly Cloudy
11:53 AM 46.0 °F - 28.9 °F 51% 29.65 in 10.0 mi Calm Calm - N/A   Scattered Clouds
12:53 PM 50.0 °F - 28.9 °F 44% 29.65 in 10.0 mi Calm Calm - N/A   Scattered Clouds
1:53 PM 50.0 °F - 28.0 °F 43% 29.64 in 10.0 mi East 3.5 mph - N/A   Scattered Clouds
2:53 PM 51.1 °F - 25.0 °F 36% 29.63 in 10.0 mi East 8.1 mph - N/A   Scattered Clouds
3:53 PM 52.0 °F - 23.0 °F 32% 29.62 in 10.0 mi ENE 6.9 mph - N/A   Scattered Clouds
4:53 PM 48.9 °F - 25.0 °F 39% 29.61 in 10.0 mi NE 8.1 mph - N/A   Mostly Cloudy
5:53 PM 48.9 °F - 27.0 °F 43% 29.60 in 10.0 mi NNE 15.0 mph - N/A   Scattered Clouds
6:53 PM 48.0 °F - 28.0 °F 46% 29.61 in 10.0 mi NNE 13.8 mph - N/A   Partly Cloudy
7:53 PM 46.0 °F 40.6 °F 28.9 °F 51% 29.61 in 10.0 mi NNE 11.5 mph - N/A   Partly Cloudy
8:53 PM 45.0 °F 38.2 °F 28.0 °F 52% 29.62 in 10.0 mi NNE 15.0 mph - N/A   Partly Cloudy
9:53 PM 43.0 °F 36.4 °F 27.0 °F 53% 29.63 in 10.0 mi North 12.7 mph - N/A   Partly Cloudy
10:53 PM 41.0 °F 33.9 °F 27.0 °F 57% 29.65 in 10.0 mi North 12.7 mph - N/A   Partly Cloudy
11:53 PM 39.9 °F 32.1 °F 27.0 °F 60% 29.65 in 10.0 mi North 13.8 mph - N/A   Clear